DW9246 Weather Reports


Display with metric or nautical units.
time (UTC)temp
F
wind
direction
speed
MPH
gust
MPH
rain 1hr
in
rain 24hr
in
rain mn
in
humidity
%
barometer
mb
20260510033010 56 298 3.0 6.0 0.00 0.28 0.00 88 1013.1
20260510032010 56 295 3.0 7.0 0.00 0.28 0.00 88 1013.1
20260510031010 56 313 3.0 4.0 0.00 0.28 0.00 88 1013.2
20260510030019 56 313 3.0 5.0 0.00 0.28 0.00 88 1013.2
20260510025010 56 313 2.0 4.0 0.00 0.28 0.00 88 1013.2
20260510023010 56 313 3.0 4.0 0.00 0.28 0.00 88 1013.2
20260510022011 56 313 3.0 5.0 0.00 0.28 0.00 88 1013.3
20260510021010 55 313 3.0 5.0 0.00 0.28 0.00 89 1013.4
20260510020012 55 311 3.0 7.0 0.00 0.28 0.00 88 1013.3
20260510015017 55 294 5.0 8.0 0.00 0.28 0.00 88 1013.5
20260510014009 55 298 4.0 8.0 0.00 0.28 0.00 88 1013.5
20260510011017 54 296 5.0 7.0 0.00 0.28 0.00 88 1013.6
20260510010023 53 334 3.0 6.0 0.00 0.28 0.00 88 1013.7
20260510005022 53 340 2.0 4.0 0.00 0.28 0.00 88 1013.7
20260510004021 53 339 3.0 5.0 0.00 0.28 0.00 88 1013.7
20260510003022 53 339 3.0 5.0 0.00 0.28 0.00 88 1013.6
20260510002022 53 339 4.0 6.0 0.00 0.28 0.00 89 1013.6
20260510001023 53 339 4.0 6.0 0.00 0.28 0.00 89 1013.7
20260510000032 53 339 3.0 5.0 0.00 0.28 0.00 89 1013.7
20260509235021 54 339 3.0 4.0 0.00 0.28 0.28 89 1013.8
20260509234022 54 337 3.0 6.0 0.00 0.28 0.28 89 1013.9
20260509233022 54 304 4.0 6.0 0.00 0.28 0.28 89 1013.9
20260509232021 55 323 4.0 8.0 0.00 0.28 0.28 89 1014.0
20260509231021 55 323 5.0 9.0 0.00 0.28 0.28 90 1014.1
20260509230022 55 329 6.0 8.0 0.00 0.28 0.28 90 1014.1
20260509225028 55 331 6.0 9.0 0.00 0.28 0.28 90 1014.2
20260509224022 56 329 4.0 8.0 0.00 0.28 0.28 90 1014.2
20260509222021 56 298 4.0 8.0 0.00 0.28 0.28 91 1014.8
20260509221024 56 287 4.0 8.0 0.00 0.28 0.28 91 1014.8
20260509220020 55 298 4.0 7.0 0.00 0.28 0.28 91 1014.5
20260509215021 56 300 3.0 4.0 0.00 0.28 0.28 91 1014.4
20260509214025 56 273 4.0 7.0 0.00 0.28 0.28 91 1014.4
20260509213021 56 294 3.0 6.0 0.00 0.28 0.28 91 1014.3
20260509212021 56 289 4.0 7.0 0.00 0.28 0.28 91 1014.2
20260509210025 56 288 3.0 6.0 0.00 0.28 0.28 91 1014.1
20260509205021 56 289 3.0 7.0 0.00 0.28 0.28 91 1014.0
20260509204021 57 262 3.0 7.0 0.00 0.28 0.28 91 1014.0
20260509203026 57 255 4.0 8.0 0.00 0.28 0.28 91 1014.0
20260509202021 57 249 4.0 6.0 0.00 0.28 0.28 90 1014.0
20260509201021 57 248 3.0 6.0 0.00 0.28 0.28 90 1013.7
20260509200022 57 252 3.0 5.0 0.00 0.28 0.28 89 1013.5
20260509195022 57 252 3.0 5.0 0.00 0.28 0.28 89 1013.2
20260509194021 57 262 3.0 5.0 0.00 0.28 0.28 88 1013.1
20260509193021 57 251 2.0 5.0 0.00 0.28 0.28 87 1012.8
20260509192023 57 287 2.0 4.0 0.00 0.28 0.28 86 1012.7
20260509191022 58 289 3.0 6.0 0.00 0.28 0.28 85 1012.4
20260509190023 58 244 2.0 4.0 0.00 0.28 0.28 83 1012.4
20260509185021 59 245 1.0 3.0 0.00 0.28 0.28 82 1012.3
20260509183021 60 0 0.0 0.0 0.00 0.28 0.28 83 1011.9
20260509182021 59 98 0.0 2.0 0.00 0.28 0.28 83 1011.8
20260509181024 59 97 1.0 5.0 0.00 0.28 0.28 85 1011.7
20260509180022 58 87 2.0 5.0 0.00 0.28 0.28 86 1011.5
20260509175022 58 63 2.0 7.0 0.00 0.28 0.28 86 1011.7
20260509174021 58 326 2.0 4.0 0.00 0.28 0.28 88 1011.6
20260509173019 58 327 0.0 2.0 0.00 0.28 0.28 90 1011.6
20260509172022 58 23 1.0 4.0 0.00 0.28 0.28 90 1011.5
20260509171021 57 46 3.0 9.0 0.00 0.28 0.28 90 1011.3
20260509165019 58 76 7.0 14.0 0.02 0.28 0.28 91 1011.0
20260509164020 57 76 7.0 12.0 0.02 0.28 0.28 90 1011.2
20260509163019 57 65 7.0 12.0 0.05 0.28 0.28 91 1011.8
20260509162020 56 58 7.0 13.0 0.09 0.28 0.28 91 1012.1
20260509161020 56 49 7.0 14.0 0.15 0.28 0.28 91 1012.3
20260509160021 57 56 6.0 12.0 0.19 0.27 0.27 91 1012.6
20260509155020 58 72 4.0 9.0 0.19 0.26 0.26 91 1012.6
20260509153020 57 129 4.0 9.0 0.20 0.23 0.23 88 1013.0
20260509152025 58 148 5.0 10.0 0.16 0.17 0.18 87 1013.3
20260509151020 58 155 7.0 11.0 0.11 0.13 0.13 87 1013.5
20260509150022 59 152 3.0 10.0 0.06 0.08 0.08 86 1013.5
20260509145021 59 163 6.0 10.0 0.06 0.07 0.07 85 1013.5
20260509144020 60 178 5.0 9.0 0.03 0.05 0.05 84 1013.3
20260509143019 60 189 5.0 8.0 0.01 0.02 0.02 82 1013.1
20260509141020 60 111 3.0 6.0 0.02 0.02 0.02 81 1012.0
20260509140021 60 77 3.0 9.0 0.02 0.02 0.02 81 1011.4
20260509135020 60 59 3.0 10.0 0.02 0.02 0.02 81 1011.2
20260509134020 60 61 5.0 11.0 0.02 0.02 0.02 81 1011.2
20260509133020 60 67 2.0 6.0 0.02 0.02 0.02 80 1011.3
20260509132020 61 104 2.0 4.0 0.01 0.01 0.01 78 1011.9
20260509131020 61 141 3.0 7.0 0.00 0.00 0.00 77 1012.4
20260509130022 62 125 1.0 6.0 0.00 0.00 0.00 75 1012.8
20260509125021 62 125 0.0 1.0 0.00 0.00 0.00 74 1013.0
20260509124020 62 125 0.0 2.0 0.00 0.00 0.00 74 1013.1
20260509123022 62 126 0.0 2.0 0.00 0.00 0.00 75 1013.2
20260509122020 62 117 2.0 4.0 0.00 0.00 0.00 75 1013.2
20260509120021 62 118 3.0 8.0 0.00 0.00 0.00 75 1013.0
20260509114020 62 105 6.0 12.0 0.00 0.00 0.00 76 1013.3
20260509113020 61 104 6.0 12.0 0.00 0.00 0.00 77 1013.5
20260509112019 62 127 4.0 9.0 0.00 0.00 0.00 78 1013.7
20260509111019 61 138 3.0 9.0 0.00 0.00 0.00 78 1014.0
20260509105022 61 131 7.0 11.0 0.00 0.00 0.00 78 1013.7
20260509104018 61 138 7.0 12.0 0.00 0.00 0.00 78 1013.7
20260509102020 62 156 7.0 16.0 0.00 0.00 0.00 78 1014.1
20260509101020 62 147 6.0 12.0 0.00 0.00 0.00 76 1014.2
20260509095019 62 111 3.0 7.0 0.00 0.00 0.00 75 1013.9
20260509094019 62 127 4.0 9.0 0.00 0.00 0.00 75 1014.1
20260509092020 63 120 5.0 11.0 0.00 0.00 0.00 74 1014.0
20260509091020 62 98 6.0 14.0 0.00 0.00 0.00 75 1013.6
20260509085019 62 104 6.0 10.0 0.00 0.00 0.00 75 1013.5
20260509084023 62 83 7.0 12.0 0.00 0.00 0.00 75 1013.5
20260509083022 62 89 7.0 13.0 0.00 0.00 0.00 75 1013.3
20260509082019 62 76 5.0 11.0 0.00 0.00 0.00 76 1013.4
20260509081019 61 65 4.0 10.0 0.00 0.00 0.00 77 1013.4
20260509075021 61 67 5.0 10.0 0.00 0.00 0.00 77 1013.6
20260509074020 60 84 5.0 11.0 0.00 0.00 0.00 78 1013.8
20260509073020 60 77 5.0 13.0 0.00 0.00 0.00 78 1013.8
20260509071019 60 77 7.0 18.0 0.00 0.00 0.00 78 1013.4
20260509070024 60 75 7.0 12.0 0.00 0.00 0.00 78 1013.4
20260509065019 60 70 7.0 14.0 0.00 0.00 0.00 78 1013.6
20260509064024 60 64 8.0 14.0 0.00 0.00 0.00 78 1013.4
20260509063019 60 64 7.0 11.0 0.00 0.00 0.00 77 1013.4
20260509062021 60 59 7.0 13.0 0.00 0.00 0.00 77 1013.4
20260509061019 60 58 6.0 11.0 0.00 0.00 0.00 78 1013.7
20260509054018 59 57 8.0 13.0 0.00 0.00 0.00 78 1013.4
20260509053018 59 58 6.0 11.0 0.00 0.00 0.00 79 1013.4
20260509051019 59 53 6.0 10.0 0.00 0.00 0.00 79 1013.4
20260509050020 59 49 6.0 12.0 0.00 0.00 0.00 79 1013.5
20260509045019 59 43 6.0 11.0 0.00 0.00 0.00 79 1013.5
20260509042019 58 66 6.0 11.0 0.00 0.00 0.00 81 1013.5
20260509041019 59 64 6.0 12.0 0.00 0.00 0.00 81 1013.5
20260509040022 59 64 6.0 11.0 0.00 0.00 0.00 81 1013.6
20260509035021 59 68 6.0 10.0 0.00 0.00 0.00 81 1013.8